Location: Newark
(25.6108°S, 54.5803°W)
Time: 05:48:36
(UTC+00:00)

deb Explorer IX - Pass Details

Date: 04 November 2020
Orbit: 538 x 1104 km, 38.8° (Epoch: 27 November)

Event Time Altitude Azimuth Distance (km) Brightness Sun altitude
Rises 20:20:26 0° 245° (WSW) 3,565 ? 20.3°
Reaches altitude 10° 20:23:55 10° 229° (SW) 2,507 ? 19.5°
Maximum altitude 20:28:11 20° 182° (S) 1,753 ? 18.6°
Drops below altitude 10° 20:32:02 10° 134° (SE) 2,215 ? 17.7°
Sets 20:34:52 0° 117° (ESE) 3,030 ? 17.1°
